Palacios, TX

3:53 PM CST on February 21, 2017 (GMT -0600)
Palacios Municipal

Weather History for KPSX - January, 2013

Change the Weather History Date:

Saturday, January 19, 2013

  Actual Average Record
Temperature  
Mean Temperature 56 °F -  
Max Temperature 68 °F 60 °F 82 °F (1950)
Min Temperature 45 °F 44 °F 23 °F (1984)
Degree Days  
Heating Degree Days 8    
Growing Degree Days 6 (Base 50)    
Moisture  
Dew Point 47 °F    
Average Humidity 74    
Maximum Humidity 88    
Minimum Humidity 52    
Precipitation  
Precipitation 0.00 in - - ()
Sea Level Pressure  
Sea Level Pressure 30.27 in    
Wind  
Wind Speed 8 mph (ESE)    
Max Wind Speed 15 mph    
Max Gust Speed -    
Visibility 9 miles    
Events      
Averages and records for this station are not official NWS values.
T = Trace of Precipitation, MM = Missing Value Source: NWS Daily Summary

Daily Weather History Graph

Daily Weather History Graph

Search for Another Location

Airport or City:

Trip Planner

Search our weather history database for the weather conditions in past years. The results will help you decide how hot, cold, wet, or windy it might be!

Date:

Astronomy

Jan. 19, 2013 Rise Set
Actual Time 7:18 AM CST 5:53 PM CST
Civil Twilight 6:52 AM CST 6:18 PM CST
Nautical Twilight 6:24 AM CST 6:47 PM CST
Astronomical Twilight 5:55 AM CST 7:16 PM CST
Moon 12:15 PM CST (1/19) 1:00 AM CST (1/19)
Length of Visible Light 11h 26m
Length of Day
10h 35m
First Quarter, 57% of the Moon is Illuminated
Jan 19
First Quarter
Jan 26
Full
Feb 3
Last Quarter
Feb 10
New
Feb 17
First Quarter

Hourly Weather History & Observations

Time (CST) Temp. Windchill Dew Point Humidity Pressure Visibility Wind Dir Wind Speed Gust Speed Precip Events Conditions
12:53 AM 48.0 °F - 43.0 °F 83% 30.35 in 10.0 mi East 6.9 mph - N/A   Clear
1:53 AM 45.0 °F 41.2 °F 39.9 °F 82% 30.34 in 10.0 mi NE 6.9 mph - N/A   Clear
2:53 AM 45.0 °F 41.8 °F 41.0 °F 86% 30.32 in 8.0 mi ENE 5.8 mph - N/A   Clear
3:53 AM 45.0 °F 41.2 °F 41.0 °F 86% 30.30 in 5.0 mi ENE 6.9 mph - N/A   Clear
4:53 AM 48.0 °F - 43.0 °F 83% 30.30 in 7.0 mi East 6.9 mph - N/A   Clear
5:53 AM 48.0 °F - 43.0 °F 83% 30.29 in 10.0 mi East 6.9 mph - N/A   Clear
6:53 AM 48.9 °F - 43.0 °F 80% 30.29 in 10.0 mi East 9.2 mph - N/A   Clear
7:53 AM 48.9 °F - 44.1 °F 83% 30.31 in 4.0 mi East 8.1 mph - N/A   Haze
8:53 AM 53.1 °F - 48.0 °F 83% 30.32 in 6.0 mi East 8.1 mph - N/A   Haze
9:53 AM 61.0 °F - 48.9 °F 64% 30.33 in 10.0 mi ESE 10.4 mph - N/A   Clear
10:53 AM 66.0 °F - 48.0 °F 52% 30.31 in 10.0 mi SE 15.0 mph - N/A   Clear
11:53 AM 66.0 °F - 48.9 °F 54% 30.30 in 10.0 mi SSE 12.7 mph - N/A   Clear
1:53 PM 68.0 °F - 50.0 °F 52% 30.23 in 10.0 mi SSE 11.5 mph - N/A   Clear
2:53 PM 66.9 °F - 50.0 °F 54% 30.21 in 10.0 mi SSE 10.4 mph - N/A   Clear
3:53 PM 66.9 °F - 51.1 °F 57% 30.22 in 10.0 mi SSE 11.5 mph - N/A   Clear
4:53 PM 66.0 °F - 51.1 °F 59% 30.20 in 10.0 mi SSE 10.4 mph - N/A   Clear
5:53 PM 60.1 °F - 51.1 °F 72% 30.20 in 10.0 mi SE 6.9 mph - N/A   Clear
6:53 PM 55.9 °F - 50.0 °F 80% 30.21 in 10.0 mi SE 9.2 mph - N/A   Clear
7:53 PM 55.9 °F - 50.0 °F 80% 30.23 in 10.0 mi SE 8.1 mph - N/A   Clear
8:53 PM 55.0 °F - 48.9 °F 80% 30.24 in 10.0 mi SE 6.9 mph - N/A   Clear
9:53 PM 55.0 °F - 50.0 °F 83% 30.24 in 10.0 mi ESE 6.9 mph - N/A   Clear
10:53 PM 53.6 °F - 50.0 °F 88% 30.25 in 10.0 mi ESE 6.9 mph - N/A   Clear
11:53 PM 54.0 °F - 50.0 °F 86% 30.24 in 10.0 mi ESE 5.8 mph - N/A   Clear